sat.trackr.live / text

‹ back to catalog

STARLINK-34083

NORAD 63908 · 2025-095U

PAYLOAD ACTIVE UNKNOWN

§ Identity

Operator
Country
US
Launch date
2025-05-10
Launch site
AFETR
Launch vehicle
Mass (kg)
RCS (m²)

Purposes: comms

External: N2YO · Heavens-Above · Gunter

§ Orbital elements

Epoch: 2026-05-25T04:31:29.932032Z

Period
94.27 min
Inclination
42.9981°
Eccentricity
0.0000996
Mean motion
15.27584353 rev/d
Perigee alt
482.4 km
Apogee alt
483.7 km
Semi-major
6,861.2 km
B*
2.5516e-4
RAAN
104.5082°
Arg perigee
251.1921°
Mean anomaly
108.8823°
Rev number
5,947

§ Raw data

STARLINK-340831 63908U 25095U   26145.18854088  .00006767  00000+0  25516-3 0  99942 63908  42.9981 104.5082 0000996 251.1921 108.8823 15.27584353 59474

JSON: /api/v1/satellites/63908 · /tle

For live sub-satellite position, see the globe view (requires WebGL).

§ Visibility from observer

Set your observer location to see the next 7 days of passes ≥ 10°. The values pass through the URL so the page stays shareable.

No JS? Fill the form by hand. The geolocation button needs JavaScript.